When you browse on this site, cookies collect data to enhance your experience and personalize the content and advertising you see.
Visit our Privacy Policy to learn more. By continuing to use the site, you agree to this use of cookies and data.
  • Em Portugal
  • Lista de países
  • Para 7 dias
  • Temperatura da água
  • Mapas de satélite
  • Mapa do tempo
  • Widgets de tempo
  • user-avatar
    Iniciar Sessão

    Previsão horária em Krasnoe Lyado

    Hoje, 26 Abril, Sexta-feira

    Tempo Temperatura Precipitação Vento Pressão Humidade
    00:00 +12°C° 0 mm 0 m/s 744 mmHg 49%
    01:00 +12°C° 0 mm 0 m/s 744 mmHg 50%
    02:00 +11°C° 0 mm 0 m/s 744 mmHg 51%
    03:00 +11°C° 0 mm 0 m/s 744 mmHg 52%
    04:00 +12°C° 0 mm 1 m/s 744 mmHg 53%
    05:00 +12°C° 0 mm 1 m/s 744 mmHg 54%
    06:00 +14°C° 0 mm 1 m/s 744 mmHg 50%
    07:00 +16°C° 0 mm 1 m/s 744 mmHg 46%
    08:00 +19°C° 0 mm 1 m/s 744 mmHg 43%
    09:00 +21°C° 0 mm 1 m/s 744 mmHg 38%
    10:00 +21°C° 0 mm 2 m/s 743 mmHg 33%
    11:00 +24°C° 0 mm 2 m/s 743 mmHg 29%
    12:00 +24°C° 0 mm 2 m/s 743 mmHg 28%
    13:00 +24°C° 0 mm 2 m/s 743 mmHg 28%
    14:00 +24°C° 0 mm 2 m/s 742 mmHg 27%
    15:00 +24°C° 0 mm 2 m/s 742 mmHg 32%
    16:00 +23°C° 0 mm 1 m/s 742 mmHg 36%
    17:00 +22°C° 0 mm 1 m/s 741 mmHg 40%
    18:00 +20°C° 0 mm 1 m/s 741 mmHg 44%
    19:00 +19°C° 0 mm 1 m/s 741 mmHg 48%
    20:00 +16°C° 0 mm 1 m/s 741 mmHg 52%
    21:00 +15°C° 0 mm 1 m/s 740 mmHg 54%
    22:00 +14°C° 0 mm 1 m/s 740 mmHg 57%
    23:00 +13°C° 0 mm 2 m/s 740 mmHg 59%

    Amanhã, 27 Abril, Sábado

    Tempo Temperatura Precipitação Vento Pressão Humidade
    00:00 +13°C° 0 mm 2 m/s 740 mmHg 62%
    01:00 +12°C° 0 mm 2 m/s 739 mmHg 64%
    02:00 +12°C° 0 mm 2 m/s 739 mmHg 66%
    03:00 +12°C° 0 mm 2 m/s 739 mmHg 69%
    04:00 +10°C° 0 mm 2 m/s 739 mmHg 71%
    05:00 +10°C° 0 mm 2 m/s 738 mmHg 73%
    06:00 +13°C° 0 mm 2 m/s 738 mmHg 67%
    07:00 +15°C° 0 mm 2 m/s 738 mmHg 61%
    08:00 +16°C° 0 mm 2 m/s 738 mmHg 55%
    09:00 +18°C° 0 mm 2 m/s 737 mmHg 50%
    10:00 +20°C° 0 mm 2 m/s 737 mmHg 44%
    11:00 +23°C° 0 mm 2 m/s 737 mmHg 39%
    12:00 +23°C° 0 mm 2 m/s 737 mmHg 38%
    13:00 +23°C° 0 mm 2 m/s 736 mmHg 37%
    14:00 +24°C° 0 mm 2 m/s 736 mmHg 37%
    15:00 +23°C° 0 mm 2 m/s 736 mmHg 41%
    16:00 +21°C° 0 mm 2 m/s 735 mmHg 45%
    17:00 +21°C° 0 mm 2 m/s 735 mmHg 49%
    18:00 +19°C° 0.3 mm 2 m/s 735 mmHg 58%
    19:00 +17°C° 0.3 mm 2 m/s 735 mmHg 67%
    20:00 +15°C° 0.3 mm 2 m/s 735 mmHg 75%
    21:00 +14°C° 0.2 mm 2 m/s 735 mmHg 78%
    22:00 +13°C° 0.2 mm 2 m/s 736 mmHg 80%
    23:00 +12°C° 0.2 mm 2 m/s 736 mmHg 82%

    Depois de amanhã, 28 Abril, Domingo

    Tempo Temperatura Precipitação Vento Pressão Humidade
    00:00 +11°C° 0 mm 3 m/s 736 mmHg 83%
    01:00 +10°C° 0 mm 3 m/s 737 mmHg 85%
    02:00 +10°C° 0 mm 3 m/s 737 mmHg 86%
    03:00 +8°C° 0 mm 4 m/s 738 mmHg 85%
    04:00 +8°C° 0 mm 4 m/s 738 mmHg 84%
    05:00 +7°C° 0 mm 4 m/s 739 mmHg 83%
    06:00 +7°C° 0 mm 4 m/s 740 mmHg 78%
    07:00 +7°C° 0 mm 4 m/s 741 mmHg 73%
    08:00 +7°C° 0 mm 4 m/s 741 mmHg 68%
    09:00 +8°C° 0 mm 4 m/s 742 mmHg 61%
    10:00 +8°C° 0 mm 4 m/s 742 mmHg 54%
    11:00 +10°C° 0 mm 4 m/s 743 mmHg 47%
    12:00 +10°C° 0 mm 4 m/s 743 mmHg 42%
    13:00 +11°C° 0 mm 4 m/s 743 mmHg 37%
    14:00 +11°C° 0 mm 4 m/s 743 mmHg 32%
    15:00 +11°C° 0 mm 4 m/s 743 mmHg 32%
    16:00 +10°C° 0 mm 4 m/s 743 mmHg 32%
    17:00 +10°C° 0 mm 4 m/s 743 mmHg 32%
    18:00 +8°C° 0 mm 3 m/s 744 mmHg 37%
    19:00 +7°C° 0 mm 3 m/s 745 mmHg 42%
    20:00 +5°C° 0 mm 2 m/s 745 mmHg 46%
    21:00 +4°C° 0 mm 2 m/s 745 mmHg 50%
    22:00 +4°C° 0 mm 2 m/s 746 mmHg 54%
    23:00 +3°C° 0 mm 2 m/s 746 mmHg 58%

    29 Abril, Segunda-feira

    Tempo Temperatura Precipitação Vento Pressão Humidade
    00:00 +2°C° 0 mm 2 m/s 747 mmHg 61%
    01:00 +1°C° 0 mm 2 m/s 747 mmHg 64%
    02:00 +1°C° 0 mm 2 m/s 747 mmHg 68%
    03:00 -1°C° 0 mm 2 m/s 747 mmHg 68%
    04:00 -1°C° 0 mm 2 m/s 747 mmHg 68%
    05:00 -1°C° 0 mm 2 m/s 748 mmHg 68%
    06:00 +2°C° 0 mm 2 m/s 748 mmHg 58%
    07:00 +3°C° 0 mm 2 m/s 748 mmHg 49%
    08:00 +4°C° 0 mm 3 m/s 748 mmHg 39%
    09:00 +7°C° 0 mm 2 m/s 748 mmHg 36%
    10:00 +8°C° 0 mm 2 m/s 748 mmHg 32%
    11:00 +9°C° 0 mm 2 m/s 748 mmHg 29%
    12:00 +10°C° 0 mm 2 m/s 747 mmHg 27%
    13:00 +12°C° 0 mm 2 m/s 747 mmHg 26%
    14:00 +13°C° 0 mm 2 m/s 747 mmHg 25%
    15:00 +12°C° 0 mm 2 m/s 746 mmHg 25%
    16:00 +12°C° 0 mm 1 m/s 746 mmHg 26%
    17:00 +12°C° 0 mm 1 m/s 745 mmHg 27%
    18:00 +10°C° 0 mm 1 m/s 745 mmHg 33%
    19:00 +8°C° 0 mm 1 m/s 745 mmHg 39%
    20:00 +6°C° 0 mm 1 m/s 745 mmHg 45%
    21:00 +5°C° 0 mm 1 m/s 745 mmHg 47%
    22:00 +4°C° 0 mm 1 m/s 745 mmHg 49%
    23:00 +3°C° 0 mm 1 m/s 745 mmHg 52%

    30 Abril, Terça-feira

    Tempo Temperatura Precipitação Vento Pressão Humidade
    00:00 +3°C° 0 mm 1 m/s 745 mmHg 53%
    01:00 +3°C° 0 mm 1 m/s 745 mmHg 54%
    02:00 +3°C° 0 mm 1 m/s 744 mmHg 55%
    03:00 +3°C° 0 mm 1 m/s 744 mmHg 56%
    04:00 +3°C° 0 mm 1 m/s 744 mmHg 57%
    05:00 +3°C° 0 mm 1 m/s 744 mmHg 58%
    06:00 +5°C° 0 mm 1 m/s 744 mmHg 52%
    07:00 +7°C° 0 mm 1 m/s 744 mmHg 46%
    08:00 +8°C° 0 mm 0 m/s 744 mmHg 41%
    09:00 +11°C° 0 mm 1 m/s 744 mmHg 37%
    10:00 +12°C° 0 mm 1 m/s 743 mmHg 33%
    11:00 +14°C° 0 mm 1 m/s 743 mmHg 29%
    12:00 +14°C° 0 mm 1 m/s 743 mmHg 29%
    13:00 +14°C° 0 mm 1 m/s 742 mmHg 29%
    14:00 +14°C° 0 mm 2 m/s 742 mmHg 29%
    15:00 +13°C° 0 mm 2 m/s 742 mmHg 31%
    16:00 +13°C° 0 mm 2 m/s 741 mmHg 33%
    17:00 +13°C° 0 mm 2 m/s 741 mmHg 35%
    18:00 +10°C° 0 mm 2 m/s 741 mmHg 42%
    19:00 +9°C° 0 mm 1 m/s 741 mmHg 48%
    20:00 +7°C° 0 mm 1 m/s 740 mmHg 54%
    21:00 +7°C° 0 mm 1 m/s 740 mmHg 56%
    22:00 +6°C° 0 mm 1 m/s 740 mmHg 57%
    23:00 +5°C° 0 mm 1 m/s 740 mmHg 58%

    1 Maio, Quarta-feira

    Tempo Temperatura Precipitação Vento Pressão Humidade
    00:00 +5°C° 0 mm 1 m/s 740 mmHg 59%
    01:00 +5°C° 0 mm 1 m/s 740 mmHg 60%
    02:00 +3°C° 0 mm 0 m/s 740 mmHg 61%
    03:00 +4°C° 0 mm 1 m/s 739 mmHg 62%
    04:00 +4°C° 0 mm 1 m/s 739 mmHg 63%
    05:00 +4°C° 0 mm 1 m/s 739 mmHg 64%
    06:00 +6°C° 0 mm 1 m/s 739 mmHg 57%
    07:00 +8°C° 0 mm 1 m/s 739 mmHg 50%
    08:00 +11°C° 0 mm 1 m/s 738 mmHg 43%
    09:00 +12°C° 0 mm 1 m/s 738 mmHg 40%
    10:00 +13°C° 0 mm 2 m/s 738 mmHg 36%
    11:00 +14°C° 0 mm 2 m/s 737 mmHg 32%
    12:00 +14°C° 0 mm 2 m/s 737 mmHg 32%
    13:00 +14°C° 0 mm 2 m/s 736 mmHg 33%
    14:00 +13°C° 0 mm 3 m/s 736 mmHg 33%
    15:00 +13°C° 0 mm 3 m/s 735 mmHg 35%
    16:00 +13°C° 0 mm 3 m/s 734 mmHg 36%
    17:00 +12°C° 0 mm 3 m/s 734 mmHg 38%
    18:00 +12°C° 0 mm 2 m/s 733 mmHg 45%
    19:00 +9°C° 0 mm 2 m/s 733 mmHg 52%
    20:00 +7°C° 0 mm 2 m/s 733 mmHg 59%
    21:00 +7°C° 0 mm 2 m/s 732 mmHg 59%
    22:00 +6°C° 0 mm 2 m/s 732 mmHg 59%
    23:00 +5°C° 0 mm 3 m/s 731 mmHg 59%
    Mostrar mais